Location: Six Mile Lake
(44.9000°N, 79.7170°W)
Time: 08:31:25
(UTC-04:00)

ZACube-1 - Pass Details

Date: 09 July 2022
Orbit: 582 x 661 km, 97.6° (Epoch: 14 August)

Event Time Altitude Azimuth Distance (km) Brightness Sun altitude
Rises 03:50:32 0° 33° (NNE) 2,988 ? -14.9°
Reaches altitude 10° 03:54:10 10° 64° (ENE) 2,079 ? -14.6°
Maximum altitude 03:56:01 12° 88° (E) 1,929 ? -14.4°
Drops below altitude 10° 03:57:51 10° 112° (ESE) 2,078 ? -14.2°
Sets 04:01:28 0° 143° (SE) 2,983 ? -13.8°
